Flag for Norway Weather past 2 weeks in Orkanger/Fannrem, Norway

Now
24 °F

Cold.


Feels Like: 24 °F
Forecast: 22 / 28 °F
Wind: 1 mph from North

Location: Vinjeora Ii

Current Time: Feb 1, 2015 at 4:01:59 PM

Latest Report: Feb 1, 2015 at 3:00 PM


Visibility: N/A

Pressure: 29.26 "Hg

Humidity: 84%

Dew point: 20 °F

Location of Orkanger/FannremLocation

Historic Weather in Orkanger/Fannrem — Graph

°F

Orkanger/Fannrem temperature yesterday

Maximum temperature yesterday: 37 °F (at 1:00 AM)
Minimum temperature yesterday: 22 °F (at 11:00 PM)
Average temperature yesterday: 32 °F

Past Weeks' High & Low Weather Summary

 TemperatureHumidityPressure
High49 °F (Jan 28, 2:00 PM)96% (Jan 18, 5:00 AM)30.30 "Hg (Jan 18, 5:00 AM)
Low14 °F (Jan 23, 8:00 AM)38% (Jan 30, 3:00 PM)28.32 "Hg (Jan 29, 2:00 PM)
Average31 °F66%29.55 "Hg
* Reported Jan 17 2:00 PM — Feb 1 2:00 PM, Orkanger/Fannrem, Weather by CustomWeather, © 2014

Note: Actual official high and low records may vary slightly from our data, if they occured in-between our weather recording intervals... More about our weather records

Advertising

Orkanger/Fannrem weather history for previous 24 hours

 ConditionsComfort  
Time TempWeatherWind HumidityBarometerVisibility
2:00 PM
Feb 1
23 °FCold.1 mph81%29.23 "HgN/A
1:00 PM23 °FCold.1 mph79%29.23 "HgN/A
12:00 PM22 °FCold.1 mph76%29.26 "HgN/A
11:00 AM21 °FCold.1 mph74%29.26 "HgN/A
10:00 AM20 °FCold.1 mph75%29.26 "HgN/A
9:00 AM18 °FCold.1 mph76%29.26 "HgN/A
8:00 AM17 °FCold.1 mph76%29.26 "HgN/A
7:00 AM16 °FCold.1 mph76%29.26 "HgN/A
6:00 AM17 °FCold.1 mph74%29.26 "HgN/A
5:00 AM17 °FCold.1 mph73%29.26 "HgN/A
4:00 AM17 °FCold.1 mph71%29.26 "HgN/A
3:00 AM18 °FCold.2 mph69%29.26 "HgN/A
2:00 AM19 °FCold.2 mph68%29.23 "HgN/A
1:00 AM20 °FCold.2 mph66%29.23 "HgN/A
12:00 AM21 °FCold.2 mph65%29.23 "HgN/A
11:00 PM
Jan 31
22 °FCold.3 mph63%29.23 "HgN/A
10:00 PM23 °FCold.6 mph62%29.21 "HgN/A
9:00 PM24 °FCold.6 mph60%29.21 "HgN/A
8:00 PM25 °FChilly.5 mph59%29.18 "HgN/A
7:00 PM26 °FChilly.5 mph60%29.18 "HgN/A
6:00 PM28 °FChilly.5 mph61%29.15 "HgN/A
5:00 PM29 °FChilly.3 mph63%29.12 "HgN/A
4:00 PM31 °FChilly.1 mph59%29.09 "HgN/A
Weather by CustomWeather, © 2014

See weather overviewHow to use our weather pages